Weather History for Scottsbluff, NE

Change the Weather History Date:

Thursday, March 13, 2014

  Actual Average Record
Temperature  
Mean Temperature 42 °F 38 °F  
Max Temperature 64 °F 52 °F 77 °F (2003)
Min Temperature 21 °F 23 °F -16 °F (1950)
Degree Days  
Heating Degree Days 22 27  
Month to date heating degree days 380  
Since 1 July heating degree days 5292  
Cooling Degree Days 0 0  
Month to date cooling degree days 0  
Year to date cooling degree days 0  
Moisture  
Dew Point 21 °F    
Average Humidity 48    
Maximum Humidity 85    
Minimum Humidity 11    
Precipitation  
Precipitation 0.00 in 0.03 in 0.85 in (1913)
Month to date precipitation 0.36  
Year to date precipitation 1.37  
Snow  
Snow 0.00 in 0.30 in 9.00 in (1913)
Month to date snowfall 3.3  
Since 1 July snowfall 31.7  
Snow Depth -    
Sea Level Pressure  
Sea Level Pressure 29.91 in    
Wind  
Wind Speed 9 mph (NNW)    
Max Wind Speed 24 mph    
Max Gust Speed 36 mph    
Visibility 10 miles    
Events      
T = Trace of Precipitation, MM = Missing Value Source: NWS Daily Summary

Daily Weather History Graph

Daily Weather History Graph

Search for Another Location

Airport:

Trip Planner

Search our weather history database for the weather conditions in past years. The results will help you decide how hot, cold, wet, or windy it might be!

Date:

Astronomy

Mar. 13, 2014 Rise Set
Actual Time 7:09 AM MDT 6:58 PM MDT
Civil Twilight 6:41 AM MDT 7:26 PM MDT
Nautical Twilight 6:09 AM MDT 7:58 PM MDT
Astronomical Twilight 5:36 AM MDT 8:31 PM MDT
Moon 4:25 PM MDT (3/13) 5:19 AM MDT (3/13)
Length of Visible Light 12h 44m
Length of Day
11h 49m
Waxing Gibbous, 92% of the Moon is Illuminated
Mar 13
Waxing Gibbous
Mar 16
Full
Mar 23
Last Quarter
Mar 30
New
Apr 7
First Quarter

Hourly Weather History & Observations

Time (MDT) Temp. Windchill Dew Point Humidity Pressure Visibility Wind Dir Wind Speed Gust Speed Precip Events Conditions
12:53 AM 26.1 °F 20.5 °F 21.0 °F 81% 30.14 in 10.0 mi East 4.6 mph - N/A   Clear
1:53 AM 25.0 °F 18.1 °F 21.0 °F 85% 30.12 in 10.0 mi NE 5.8 mph - N/A   Clear
2:53 AM 26.1 °F 20.5 °F 21.0 °F 81% 30.10 in 10.0 mi NE 4.6 mph - N/A   Clear
3:53 AM 25.0 °F 19.3 °F 19.9 °F 81% 30.06 in 10.0 mi NE 4.6 mph - N/A   Clear
4:53 AM 25.0 °F 20.7 °F 19.9 °F 81% 30.06 in 10.0 mi NE 3.5 mph - N/A   Clear
5:53 AM 24.1 °F 19.7 °F 19.0 °F 81% 30.05 in 10.0 mi NNE 3.5 mph - N/A   Clear
6:53 AM 21.9 °F - 18.0 °F 85% 30.06 in 10.0 mi Calm Calm - N/A   Clear
7:53 AM 28.0 °F - 21.9 °F 78% 30.05 in 10.0 mi Calm Calm - N/A   Clear
8:53 AM 37.0 °F 34.5 °F 25.0 °F 62% 30.02 in 10.0 mi NNW 3.5 mph - N/A   Clear
9:53 AM 43.0 °F 41.3 °F 23.0 °F 45% 29.99 in 10.0 mi NW 3.5 mph - N/A   Clear
10:53 AM 48.9 °F - 19.0 °F 31% 29.94 in 10.0 mi Variable 3.5 mph - N/A   Clear
11:53 AM 55.9 °F - 17.1 °F 22% 29.89 in 10.0 mi WSW 10.4 mph - N/A   Clear
12:53 PM 60.1 °F - 16.0 °F 18% 29.84 in 10.0 mi West 21.9 mph 29.9 mph N/A   Clear
1:53 PM 63.0 °F - 14.0 °F 15% 29.78 in 10.0 mi West 24.2 mph 35.7 mph N/A   Clear
2:53 PM 63.0 °F - 14.0 °F 15% 29.74 in 10.0 mi West 24.2 mph 35.7 mph N/A   Clear
3:53 PM 63.0 °F - 16.0 °F 16% 29.73 in 10.0 mi WNW 23.0 mph 34.5 mph N/A   Clear
4:53 PM 62.1 °F - 18.0 °F 18% 29.72 in 10.0 mi West 23.0 mph 34.5 mph N/A   Clear
5:53 PM 60.1 °F - 23.0 °F 24% 29.74 in 10.0 mi NNW 24.2 mph 29.9 mph N/A   Clear
6:00 PM 59.0 °F - 23.0 °F 25% 29.74 in 10.0 mi NW 21.9 mph 29.9 mph N/A   Clear
6:53 PM 51.1 °F - 24.1 °F 35% 29.79 in 10.0 mi NNW 11.5 mph - N/A   Clear
7:53 PM 46.9 °F - 25.0 °F 42% 29.80 in 10.0 mi NW 8.1 mph - N/A   Clear
8:53 PM 44.1 °F 39.5 °F 25.0 °F 47% 29.81 in 10.0 mi NW 8.1 mph - N/A   Clear
9:53 PM 46.0 °F 38.3 °F 25.0 °F 44% 29.84 in 10.0 mi North 20.7 mph 28.8 mph N/A   Clear
10:53 PM 41.0 °F 35.2 °F 26.1 °F 55% 29.89 in 10.0 mi North 9.2 mph - N/A   Clear
11:53 PM 36.0 °F 28.5 °F 25.0 °F 64% 29.92 in 10.0 mi West 10.4 mph - N/A   Clear